LHOB289 OAKB-VABB

Flight info

Callsign LHOB289
Flight time 2h 31m
Altitude 37000
Route KODAD M875 SAJAN G325 ZB G202 RK P628 VIKIT Z8 AAE R458 BOFIN POKON2A
Aircraft C17/H-SDE1E2FGHIJ5RTUWXY/LB1D1

Departure

Time 2026-05-09 11:49
Airport Kabul International Airport (OAKB)

Arrival

Time 2026-05-09 14:21
Airport Chhatrapati Shivaji Maharaj International Airport (VABB)
Time Latitude Longitude Altitude Speed Heading
2026-05-09 11:40 34.56933 69.20973 5831 ft 0 kts 107°
2026-05-09 11:44 34.56922 69.21000 5837 ft 3 kts 144°
2026-05-09 11:44 34.56877 69.20989 5828 ft 11 kts 196°
2026-05-09 11:45 34.56808 69.21008 5831 ft 11 kts 164°
2026-05-09 11:45 34.56699 69.20976 5832 ft 21 kts 195°
2026-05-09 11:45 34.56629 69.21071 5826 ft 19 kts 107°
2026-05-09 11:45 34.56587 69.21237 5833 ft 23 kts 106°
2026-05-09 11:46 34.56535 69.21437 5832 ft 28 kts 108°
2026-05-09 11:46 34.56472 69.21678 5830 ft 33 kts 107°
2026-05-09 11:46 34.56400 69.21965 5828 ft 36 kts 107°
2026-05-09 11:46 34.56336 69.22206 5830 ft 26 kts 107°
2026-05-09 11:47 34.56256 69.22301 5830 ft 15 kts 194°
2026-05-09 11:47 34.56142 69.22292 5831 ft 19 kts 139°
2026-05-09 11:47 34.56098 69.22430 5829 ft 18 kts 107°
2026-05-09 11:47 34.56049 69.22626 5837 ft 31 kts 108°
2026-05-09 11:48 34.55980 69.22897 5829 ft 28 kts 106°
2026-05-09 11:48 34.56043 69.23018 5830 ft 17 kts 14°
2026-05-09 11:48 34.56120 69.23026 5827 ft 6 kts 318°
2026-05-09 11:48 34.56147 69.22942 5831 ft 21 kts 287°
2026-05-09 11:49 34.56260 69.22504 5824 ft 92 kts 287°
2026-05-09 11:49 34.56520 69.21510 5831 ft 154 kts 287°
2026-05-09 11:49 34.56855 69.20128 6178 ft 176 kts 289°
2026-05-09 11:49 34.57222 69.18699 6753 ft 180 kts 290°
2026-05-09 11:50 34.57616 69.17241 7564 ft 183 kts 289°
2026-05-09 11:50 34.57984 69.15804 8467 ft 170 kts 291°
2026-05-09 11:50 34.58715 69.14699 9173 ft 176 kts 331°
2026-05-09 11:50 34.59951 69.14421 9415 ft 193 kts
2026-05-09 11:51 34.61235 69.15040 9749 ft 203 kts 36°
2026-05-09 11:51 34.61892 69.15882 9953 ft 216 kts 54°
2026-05-09 11:51 34.62485 69.18359 10134 ft 249 kts 95°
2026-05-09 11:51 34.61649 69.20190 10503 ft 262 kts 134°
2026-05-09 11:52 34.60320 69.21768 11044 ft 272 kts 134°
2026-05-09 11:52 34.58926 69.23454 11634 ft 294 kts 135°
2026-05-09 11:52 34.57432 69.25281 12189 ft 315 kts 129°
2026-05-09 11:52 34.55882 69.27150 13143 ft 318 kts 146°
2026-05-09 11:53 34.53776 69.27957 13941 ft 326 kts 174°
2026-05-09 11:53 34.51492 69.27989 14768 ft 335 kts 189°
2026-05-09 11:53 34.49134 69.27342 15155 ft 361 kts 200°
2026-05-09 11:53 34.46687 69.26270 15587 ft 385 kts 203°
2026-05-09 11:54 34.44140 69.25115 16469 ft 392 kts 201°
2026-05-09 11:54 34.41518 69.24145 17541 ft 397 kts 197°
2026-05-09 11:54 34.38833 69.23268 18489 ft 399 kts 198°
2026-05-09 11:54 34.36161 69.22307 19348 ft 402 kts 199°
2026-05-09 11:55 34.33484 69.21266 20152 ft 406 kts 200°
2026-05-09 11:56 34.19978 69.23230 23945 ft 441 kts 132°
2026-05-09 11:56 34.18217 69.26305 24438 ft 451 kts 121°
2026-05-09 11:56 34.16652 69.29612 24970 ft 457 kts 119°
2026-05-09 11:57 34.15118 69.32992 25545 ft 462 kts 120°
2026-05-09 11:57 34.13497 69.36378 26068 ft 468 kts 122°
2026-05-09 11:57 34.11534 69.39530 26669 ft 472 kts 136°
2026-05-09 11:57 34.08906 69.41897 27190 ft 473 kts 153°
2026-05-09 11:58 34.05988 69.43792 27677 ft 479 kts 155°
2026-05-09 11:58 34.02995 69.45598 28260 ft 483 kts 156°
2026-05-09 11:58 33.99981 69.47431 28885 ft 487 kts 155°
2026-05-09 11:58 33.96973 69.49350 29560 ft 489 kts 155°
2026-05-09 11:59 33.93961 69.51276 30222 ft 490 kts 155°
2026-05-09 11:59 33.90924 69.53158 30852 ft 491 kts 156°
2026-05-09 11:59 33.87928 69.55001 31476 ft 490 kts 156°
2026-05-09 11:59 33.84864 69.56916 32163 ft 490 kts 156°
2026-05-09 12:00 33.81890 69.58793 32834 ft 489 kts 156°
2026-05-09 12:00 33.78864 69.60679 33465 ft 489 kts 157°
2026-05-09 12:00 33.75834 69.62547 34104 ft 490 kts 157°
2026-05-09 12:00 33.72805 69.64426 34683 ft 490 kts 156°
2026-05-09 12:01 33.69786 69.66323 35310 ft 489 kts 157°
2026-05-09 12:01 33.66779 69.68197 35936 ft 487 kts 157°
2026-05-09 12:01 33.63772 69.70053 36576 ft 484 kts 158°
2026-05-09 12:01 33.60777 69.71900 37058 ft 487 kts 158°
2026-05-09 12:02 33.58781 69.73133 37061 ft 488 kts 158°
2026-05-09 12:02 33.51778 69.77486 37043 ft 486 kts 158°
2026-05-09 12:03 33.45767 69.81306 37050 ft 492 kts 156°
2026-05-09 12:03 33.40763 69.84507 37042 ft 488 kts 157°
2026-05-09 12:04 33.34751 69.88286 37021 ft 491 kts 157°
2026-05-09 12:04 33.28674 69.92151 37023 ft 495 kts 157°
2026-05-09 12:05 33.21617 69.96601 36983 ft 492 kts 157°
2026-05-09 12:05 33.15553 70.00426 36979 ft 494 kts 157°
2026-05-09 12:06 33.09471 70.04255 36982 ft 494 kts 157°
2026-05-09 12:06 33.03553 70.08456 36963 ft 495 kts 153°
2026-05-09 12:07 32.97634 70.12680 36972 ft 497 kts 153°
2026-05-09 12:07 32.91771 70.16937 36967 ft 495 kts 153°
2026-05-09 12:08 32.85878 70.21158 36937 ft 495 kts 153°
2026-05-09 12:08 32.79929 70.25443 36945 ft 502 kts 153°
2026-05-09 12:09 32.73975 70.29712 36924 ft 497 kts 153°
2026-05-09 12:09 32.67923 70.33601 36927 ft 487 kts 169°
2026-05-09 12:10 32.58382 70.33062 36947 ft 453 kts 213°
2026-05-09 12:10 32.55646 70.31304 36942 ft 444 kts 219°
2026-05-09 12:11 32.50374 70.27580 36910 ft 441 kts 219°
2026-05-09 12:11 32.45055 70.23898 36915 ft 443 kts 219°
2026-05-09 12:12 32.39749 70.20214 36903 ft 440 kts 219°
2026-05-09 12:12 32.34530 70.16477 36919 ft 436 kts 220°
2026-05-09 12:13 32.29297 70.12768 36917 ft 440 kts 219°
2026-05-09 12:13 32.24976 70.09632 36917 ft 438 kts 220°
2026-05-09 12:14 32.19759 70.05873 36936 ft 440 kts 219°
2026-05-09 12:14 32.14539 70.02152 36925 ft 436 kts 220°
2026-05-09 12:15 32.09396 69.98405 36927 ft 439 kts 219°
2026-05-09 12:15 32.04148 69.94689 36930 ft 438 kts 219°
2026-05-09 12:16 31.98932 69.90937 36942 ft 440 kts 220°
2026-05-09 12:16 31.93700 69.87185 36904 ft 439 kts 219°
2026-05-09 12:17 31.88500 69.83500 36941 ft 438 kts 220°
2026-05-09 12:17 31.83291 69.79754 36929 ft 437 kts 219°
2026-05-09 12:18 31.78082 69.76071 36936 ft 438 kts 219°
2026-05-09 12:18 31.72860 69.72342 36932 ft 440 kts 219°
2026-05-09 12:19 31.67623 69.68632 36941 ft 438 kts 219°
2026-05-09 12:19 31.62415 69.64936 36922 ft 437 kts 219°
2026-05-09 12:20 31.57182 69.61227 36927 ft 439 kts 219°
2026-05-09 12:20 31.51958 69.57537 36931 ft 438 kts 219°
2026-05-09 12:21 31.46775 69.53871 36910 ft 438 kts 219°
2026-05-09 12:21 31.41541 69.50182 36910 ft 438 kts 219°
2026-05-09 12:22 31.35955 69.47229 36915 ft 455 kts 198°
2026-05-09 12:22 31.32751 69.46912 36928 ft 471 kts 183°
2026-05-09 12:22 31.29465 69.47477 36936 ft 482 kts 174°
2026-05-09 12:23 31.22914 69.49174 36921 ft 480 kts 173°
2026-05-09 12:23 31.16405 69.50773 36912 ft 478 kts 174°
2026-05-09 12:24 31.09875 69.52407 36930 ft 480 kts 173°
2026-05-09 12:24 31.03352 69.54027 36946 ft 481 kts 173°
2026-05-09 12:25 30.96812 69.55649 36950 ft 484 kts 173°
2026-05-09 12:25 30.90250 69.57281 36936 ft 479 kts 173°
2026-05-09 12:26 30.83718 69.58893 36940 ft 481 kts 173°
2026-05-09 12:26 30.77171 69.60514 36940 ft 482 kts 173°
2026-05-09 12:27 30.70627 69.62130 36929 ft 480 kts 173°
2026-05-09 12:27 30.64056 69.63747 36926 ft 485 kts 173°
2026-05-09 12:28 30.57466 69.65374 36926 ft 483 kts 173°
2026-05-09 12:28 30.50899 69.66986 36930 ft 483 kts 173°
2026-05-09 12:29 30.44307 69.68605 36930 ft 484 kts 173°
2026-05-09 12:29 30.37779 69.70207 36924 ft 481 kts 173°
2026-05-09 12:30 30.31224 69.71809 36926 ft 482 kts 173°
2026-05-09 12:30 30.21377 69.74434 36929 ft 483 kts 171°
2026-05-09 12:31 30.11605 69.77230 36936 ft 481 kts 170°
2026-05-09 12:32 30.05096 69.79143 36940 ft 484 kts 171°
2026-05-09 12:32 29.98566 69.81032 36935 ft 482 kts 170°
2026-05-09 12:33 29.92096 69.82913 36917 ft 483 kts 171°
2026-05-09 12:33 29.85574 69.84809 36932 ft 482 kts 170°
2026-05-09 12:34 29.79041 69.86690 36920 ft 485 kts 171°
2026-05-09 12:34 29.72478 69.88597 36916 ft 487 kts 170°
2026-05-09 12:35 29.65898 69.90495 36905 ft 487 kts 171°
2026-05-09 12:35 29.59332 69.92387 36880 ft 487 kts 171°
2026-05-09 12:36 29.52747 69.94286 36882 ft 487 kts 170°
2026-05-09 12:36 29.46185 69.96174 36884 ft 486 kts 171°
2026-05-09 12:37 29.39609 69.98060 36864 ft 487 kts 170°
2026-05-09 12:37 29.33102 69.99931 36863 ft 484 kts 170°
2026-05-09 12:38 29.26554 70.01803 36857 ft 486 kts 170°
2026-05-09 12:38 29.19982 70.03687 36846 ft 485 kts 170°
2026-05-09 12:39 29.13440 70.05554 36847 ft 484 kts 170°
2026-05-09 12:39 29.06901 70.07421 36836 ft 486 kts 170°
2026-05-09 12:40 29.00345 70.09289 36837 ft 485 kts 170°
2026-05-09 12:40 28.93809 70.11150 36828 ft 484 kts 170°
2026-05-09 12:41 28.87257 70.13012 36820 ft 485 kts 170°
2026-05-09 12:41 28.80745 70.14861 36821 ft 484 kts 170°
2026-05-09 12:42 28.74209 70.16714 36821 ft 484 kts 170°
2026-05-09 12:42 28.67665 70.18567 36823 ft 485 kts 170°
2026-05-09 12:43 28.61110 70.20421 36820 ft 483 kts 170°
2026-05-09 12:43 28.54558 70.22270 36818 ft 488 kts 170°
2026-05-09 12:44 28.47958 70.24134 36822 ft 486 kts 170°
2026-05-09 12:44 28.41446 70.26021 36814 ft 488 kts 164°
2026-05-09 12:44 28.38390 70.27747 36840 ft 494 kts 147°
2026-05-09 12:45 28.35794 70.30397 36833 ft 499 kts 129°
2026-05-09 12:45 28.33921 70.33693 36850 ft 497 kts 115°
2026-05-09 12:45 28.32408 70.37167 36831 ft 497 kts 113°
2026-05-09 12:46 28.29489 70.44237 36829 ft 494 kts 114°
2026-05-09 12:46 28.26445 70.51251 36824 ft 496 kts 114°
2026-05-09 12:47 28.23460 70.58307 36819 ft 496 kts 114°
2026-05-09 12:47 28.20427 70.65351 36818 ft 496 kts 114°
2026-05-09 12:48 28.17414 70.72400 36817 ft 497 kts 114°
2026-05-09 12:48 28.14402 70.79398 36804 ft 496 kts 114°
2026-05-09 12:49 28.11387 70.86411 36803 ft 494 kts 114°
2026-05-09 12:49 28.08360 70.93431 36816 ft 498 kts 114°
2026-05-09 12:50 28.05317 71.00476 36813 ft 497 kts 114°
2026-05-09 12:50 28.02285 71.07485 36807 ft 495 kts 114°
2026-05-09 12:51 27.99242 71.14507 36810 ft 497 kts 114°
2026-05-09 12:51 27.96211 71.21486 36810 ft 496 kts 114°
2026-05-09 12:52 27.93167 71.28491 36799 ft 496 kts 114°
2026-05-09 12:52 27.90117 71.35492 36804 ft 495 kts 114°
2026-05-09 12:53 27.87059 71.42476 36801 ft 495 kts 116°
2026-05-09 12:53 27.83828 71.49359 36803 ft 497 kts 114°
2026-05-09 12:54 27.80627 71.56284 36818 ft 496 kts 116°
2026-05-09 12:54 27.77365 71.63163 36815 ft 497 kts 115°
2026-05-09 12:55 27.74161 71.70038 36815 ft 498 kts 116°
2026-05-09 12:55 27.70900 71.76926 36803 ft 496 kts 115°
2026-05-09 12:56 27.67651 71.83774 36802 ft 495 kts 120°
2026-05-09 12:56 27.65470 71.86782 36825 ft 497 kts 138°
2026-05-09 12:56 27.62647 71.89032 36835 ft 497 kts 155°
2026-05-09 12:56 27.59412 71.90353 36833 ft 493 kts 172°
2026-05-09 12:57 27.56035 71.90886 36828 ft 489 kts 178°
2026-05-09 12:57 27.49293 71.91579 36815 ft 489 kts 179°
2026-05-09 12:58 27.42473 71.92406 36814 ft 491 kts 178°
2026-05-09 12:58 27.35765 71.93165 36806 ft 487 kts 178°
2026-05-09 12:59 27.28988 71.93951 36808 ft 490 kts 178°
2026-05-09 12:59 27.22208 71.94732 36810 ft 488 kts 178°
2026-05-09 13:00 27.15444 71.95509 36809 ft 489 kts 178°
2026-05-09 13:00 27.08708 71.96284 36816 ft 489 kts 178°
2026-05-09 13:01 27.01937 71.97061 36813 ft 488 kts 178°
2026-05-09 13:01 26.96312 71.97705 36813 ft 489 kts 178°
2026-05-09 13:02 26.89529 71.98483 36807 ft 489 kts 178°
2026-05-09 13:02 26.82786 71.99254 36810 ft 485 kts 178°
2026-05-09 13:03 26.76050 72.00022 36826 ft 488 kts 178°
2026-05-09 13:03 26.69276 72.00798 36829 ft 488 kts 178°
2026-05-09 13:04 26.62581 72.01559 36828 ft 486 kts 178°
2026-05-09 13:04 26.55848 72.02326 36820 ft 485 kts 178°
2026-05-09 13:05 26.49143 72.03088 36816 ft 484 kts 178°
2026-05-09 13:05 26.42414 72.03852 36819 ft 486 kts 178°
2026-05-09 13:06 26.35691 72.04615 36819 ft 484 kts 178°
2026-05-09 13:06 26.28990 72.05374 36823 ft 485 kts 178°
2026-05-09 13:07 26.22246 72.06137 36824 ft 487 kts 178°
2026-05-09 13:07 26.15525 72.06898 36820 ft 484 kts 178°
2026-05-09 13:08 26.08811 72.07654 36824 ft 486 kts 178°
2026-05-09 13:08 26.02078 72.08415 36813 ft 485 kts 178°
2026-05-09 13:09 25.95406 72.09167 36820 ft 480 kts 178°
2026-05-09 13:09 25.88779 72.09910 36824 ft 484 kts 178°
2026-05-09 13:10 25.82077 72.10667 36831 ft 482 kts 178°
2026-05-09 13:10 25.75405 72.11413 36828 ft 482 kts 178°
2026-05-09 13:11 25.68721 72.12164 36842 ft 482 kts 178°
2026-05-09 13:11 25.62058 72.12926 36844 ft 481 kts 178°
2026-05-09 13:12 25.55434 72.13686 36845 ft 482 kts 178°
2026-05-09 13:12 25.48760 72.14447 36858 ft 482 kts 178°
2026-05-09 13:13 25.42101 72.15211 36852 ft 479 kts 178°
2026-05-09 13:13 25.35494 72.15963 36860 ft 477 kts 178°
2026-05-09 13:14 25.28863 72.16719 36861 ft 480 kts 178°
2026-05-09 13:16 25.02423 72.19725 36884 ft 477 kts 178°
2026-05-09 13:16 24.95850 72.20916 36891 ft 481 kts 171°
2026-05-09 13:17 24.89289 72.22385 36914 ft 481 kts 172°
2026-05-09 13:17 24.82741 72.23829 36888 ft 477 kts 171°
2026-05-09 13:18 24.76230 72.25278 36906 ft 478 kts 172°
2026-05-09 13:18 24.69678 72.26742 36905 ft 482 kts 171°
2026-05-09 13:19 24.63107 72.28209 36903 ft 480 kts 172°
2026-05-09 13:19 24.56601 72.29659 36888 ft 480 kts 171°
2026-05-09 13:20 24.50083 72.31111 36904 ft 476 kts 171°
2026-05-09 13:20 24.43587 72.32555 36906 ft 477 kts 171°
2026-05-09 13:21 24.37065 72.34005 36904 ft 478 kts 171°
2026-05-09 13:21 24.30561 72.35449 36900 ft 476 kts 171°
2026-05-09 13:22 24.24048 72.36892 36898 ft 478 kts 171°
2026-05-09 13:22 24.17566 72.38329 36894 ft 477 kts 171°
2026-05-09 13:23 24.01296 72.41926 36901 ft 478 kts 171°
2026-05-09 13:24 23.94800 72.43382 36880 ft 474 kts 171°
2026-05-09 13:24 23.88327 72.44824 36881 ft 475 kts 171°
2026-05-09 13:25 23.81832 72.46272 36878 ft 476 kts 171°
2026-05-09 13:26 23.72160 72.48425 36869 ft 475 kts 171°
2026-05-09 13:26 23.65676 72.49867 36876 ft 473 kts 171°
2026-05-09 13:27 23.59246 72.51294 36863 ft 471 kts 171°
2026-05-09 13:27 23.52786 72.52728 36868 ft 474 kts 171°
2026-05-09 13:28 23.46343 72.54157 36866 ft 472 kts 171°
2026-05-09 13:28 23.39901 72.55582 36865 ft 473 kts 171°
2026-05-09 13:29 23.33507 72.56998 36864 ft 469 kts 171°
2026-05-09 13:29 23.27116 72.58410 36859 ft 470 kts 171°
2026-05-09 13:30 23.20696 72.59827 36861 ft 471 kts 171°
2026-05-09 13:30 23.14279 72.61242 36879 ft 471 kts 171°
2026-05-09 13:31 23.07812 72.62481 36862 ft 468 kts 182°
2026-05-09 13:31 23.04625 72.62104 36890 ft 457 kts 198°
2026-05-09 13:31 23.01585 72.61138 36888 ft 456 kts 201°
2026-05-09 13:32 22.95548 72.59052 36884 ft 457 kts 200°
2026-05-09 13:32 22.86460 72.56024 36871 ft 456 kts 201°
2026-05-09 13:33 22.80389 72.53981 36871 ft 457 kts 200°
2026-05-09 13:33 22.74329 72.51955 36853 ft 455 kts 200°
2026-05-09 13:34 22.68281 72.49930 36852 ft 455 kts 200°
2026-05-09 13:34 22.62213 72.47901 36855 ft 456 kts 200°
2026-05-09 13:35 22.56158 72.45879 36855 ft 455 kts 200°
2026-05-09 13:35 22.50113 72.43861 36854 ft 455 kts 200°
2026-05-09 13:36 22.44090 72.41853 36847 ft 456 kts 200°
2026-05-09 13:36 22.38044 72.39840 36854 ft 453 kts 200°
2026-05-09 13:37 22.31995 72.37826 36860 ft 455 kts 200°
2026-05-09 13:37 22.25930 72.35810 36860 ft 455 kts 200°
2026-05-09 13:38 22.19886 72.33801 36857 ft 454 kts 200°
2026-05-09 13:38 22.13867 72.31804 36860 ft 456 kts 200°
2026-05-09 13:39 22.07815 72.29797 36862 ft 454 kts 200°
2026-05-09 13:39 22.01772 72.27795 36860 ft 454 kts 200°
2026-05-09 13:40 21.95714 72.25790 36864 ft 455 kts 200°
2026-05-09 13:40 21.89682 72.23795 36865 ft 452 kts 200°
2026-05-09 13:41 21.83653 72.21802 36871 ft 454 kts 200°
2026-05-09 13:41 21.77636 72.19831 36869 ft 455 kts 197°
2026-05-09 13:42 21.74496 72.19410 36887 ft 458 kts 180°
2026-05-09 13:42 21.71338 72.19908 36919 ft 463 kts 168°
2026-05-09 13:42 21.65046 72.21594 36890 ft 465 kts 167°
2026-05-09 13:43 21.58785 72.23219 36887 ft 462 kts 168°
2026-05-09 13:43 21.52549 72.24848 36891 ft 465 kts 168°
2026-05-09 13:44 21.46272 72.26486 36888 ft 462 kts 168°
2026-05-09 13:44 21.40033 72.28109 36882 ft 462 kts 168°
2026-05-09 13:45 21.33762 72.29741 36886 ft 464 kts 168°
2026-05-09 13:45 21.27501 72.31369 36889 ft 462 kts 168°
2026-05-09 13:46 21.21250 72.32993 36886 ft 463 kts 168°
2026-05-09 13:46 21.14970 72.34624 36888 ft 463 kts 168°
2026-05-09 13:47 21.08720 72.36244 36889 ft 462 kts 168°
2026-05-09 13:47 21.02460 72.37866 36888 ft 464 kts 168°
2026-05-09 13:48 20.96189 72.39490 36886 ft 463 kts 168°
2026-05-09 13:48 20.89972 72.41092 36886 ft 462 kts 168°
2026-05-09 13:49 20.84749 72.42426 36887 ft 463 kts 168°
2026-05-09 13:49 20.78482 72.44034 36884 ft 463 kts 168°
2026-05-09 13:50 20.72186 72.45331 36885 ft 458 kts 182°
2026-05-09 13:50 20.69043 72.44921 36917 ft 454 kts 198°
2026-05-09 13:50 20.66054 72.43817 36894 ft 455 kts 203°
2026-05-09 13:51 20.60170 72.41349 36898 ft 452 kts 204°
2026-05-09 13:51 20.54293 72.38979 36894 ft 453 kts 203°
2026-05-09 13:52 20.48416 72.36572 36900 ft 451 kts 203°
2026-05-09 13:52 20.42544 72.34186 36897 ft 451 kts 203°
2026-05-09 13:53 20.36704 72.31808 36900 ft 453 kts 203°
2026-05-09 13:53 20.30828 72.29421 36901 ft 451 kts 203°
2026-05-09 13:54 20.24956 72.27036 36899 ft 452 kts 203°
2026-05-09 13:54 20.19081 72.24651 36911 ft 450 kts 203°
2026-05-09 13:55 20.13254 72.22289 36895 ft 448 kts 203°
2026-05-09 13:55 20.07410 72.19920 36919 ft 451 kts 203°
2026-05-09 13:56 20.04471 72.18731 36766 ft 453 kts 203°
2026-05-09 13:56 20.01513 72.17533 36332 ft 454 kts 203°
2026-05-09 13:56 19.98575 72.16344 35803 ft 452 kts 203°
2026-05-09 13:56 19.95633 72.15155 35105 ft 453 kts 203°
2026-05-09 13:57 19.92718 72.13976 34436 ft 454 kts 203°
2026-05-09 13:57 19.89765 72.12782 33774 ft 455 kts 203°
2026-05-09 13:57 19.86797 72.11583 33013 ft 456 kts 202°
2026-05-09 13:57 19.83829 72.10387 32296 ft 457 kts 202°
2026-05-09 13:58 19.80723 72.09574 31566 ft 461 kts 186°
2026-05-09 13:58 19.77519 72.09731 30894 ft 465 kts 169°
2026-05-09 13:58 19.74460 72.10838 30233 ft 467 kts 152°
2026-05-09 13:58 19.71803 72.12799 29551 ft 466 kts 139°
2026-05-09 13:59 19.69376 72.15073 28794 ft 466 kts 136°
2026-05-09 13:59 19.66989 72.17414 28002 ft 467 kts 136°
2026-05-09 13:59 19.64585 72.19735 27224 ft 469 kts 136°
2026-05-09 13:59 19.62141 72.22020 26453 ft 465 kts 137°
2026-05-09 14:00 19.59747 72.24263 25685 ft 453 kts 136°
2026-05-09 14:00 19.58207 72.25730 25165 ft 448 kts 135°
2026-05-09 14:00 19.55145 72.28661 24135 ft 443 kts 135°
2026-05-09 14:00 19.52862 72.30820 23385 ft 437 kts 135°
2026-05-09 14:01 19.50610 72.32943 22497 ft 427 kts 135°
2026-05-09 14:01 19.48419 72.35021 21638 ft 417 kts 135°
2026-05-09 14:01 19.46287 72.37044 20817 ft 407 kts 135°
2026-05-09 14:01 19.44190 72.39028 20020 ft 400 kts 135°
2026-05-09 14:02 19.42138 72.40968 19258 ft 390 kts 135°
2026-05-09 14:02 19.40139 72.42859 18545 ft 381 kts 135°
2026-05-09 14:02 19.38185 72.44706 17801 ft 372 kts 135°
2026-05-09 14:02 19.36283 72.46503 17096 ft 361 kts 135°
2026-05-09 14:03 19.34442 72.48242 16494 ft 348 kts 135°
2026-05-09 14:03 19.32687 72.49901 15909 ft 337 kts 136°
2026-05-09 14:03 19.30961 72.51531 15325 ft 327 kts 136°
2026-05-09 14:03 19.29286 72.53114 14777 ft 318 kts 136°
2026-05-09 14:04 19.27658 72.54651 14265 ft 308 kts 137°
2026-05-09 14:04 19.26078 72.56141 13756 ft 300 kts 137°
2026-05-09 14:04 19.24538 72.57593 13178 ft 294 kts 137°
2026-05-09 14:04 19.23032 72.59037 12571 ft 289 kts 132°
2026-05-09 14:05 19.21962 72.60783 12012 ft 280 kts 109°
2026-05-09 14:05 19.21575 72.62760 11730 ft 272 kts 91°
2026-05-09 14:05 19.21556 72.64744 11567 ft 272 kts 89°
2026-05-09 14:05 19.21548 72.66756 11309 ft 272 kts 89°
2026-05-09 14:06 19.21539 72.68738 11109 ft 266 kts 89°
2026-05-09 14:06 19.21530 72.70708 10920 ft 269 kts 89°
2026-05-09 14:06 19.21518 72.72686 10729 ft 269 kts 89°
2026-05-09 14:06 19.21505 72.74651 10545 ft 266 kts 89°
2026-05-09 14:07 19.21493 72.76603 10347 ft 266 kts 89°
2026-05-09 14:07 19.21482 72.78537 10175 ft 266 kts 89°
2026-05-09 14:07 19.21469 72.80494 9989 ft 265 kts 89°
2026-05-09 14:07 19.21455 72.82435 9850 ft 262 kts 89°
2026-05-09 14:08 19.21443 72.84374 9736 ft 265 kts 89°
2026-05-09 14:08 19.21430 72.86323 9615 ft 265 kts 89°
2026-05-09 14:08 19.21417 72.88265 9521 ft 263 kts 89°
2026-05-09 14:08 19.21403 72.90199 9395 ft 263 kts 89°
2026-05-09 14:09 19.21390 72.92141 9273 ft 265 kts 89°
2026-05-09 14:09 19.21376 72.94092 9149 ft 264 kts 89°
2026-05-09 14:09 19.21361 72.96025 9023 ft 264 kts 88°
2026-05-09 14:09 19.21348 72.97984 8908 ft 267 kts 88°
2026-05-09 14:10 19.21318 73.01889 8615 ft 266 kts 88°
2026-05-09 14:10 19.21303 73.03843 8414 ft 266 kts 88°
2026-05-09 14:10 19.21288 73.05797 8201 ft 264 kts 88°
2026-05-09 14:11 19.21273 73.07734 7990 ft 263 kts 88°
2026-05-09 14:11 19.21257 73.09668 7796 ft 263 kts 88°
2026-05-09 14:11 19.21242 73.11580 7607 ft 263 kts 88°
2026-05-09 14:11 19.21226 73.13511 7418 ft 262 kts 88°
2026-05-09 14:12 19.21213 73.15441 7241 ft 262 kts 88°
2026-05-09 14:12 19.21217 73.17401 7049 ft 263 kts 87°
2026-05-09 14:12 19.21223 73.19311 6830 ft 263 kts 88°
2026-05-09 14:12 19.21109 73.21247 6496 ft 266 kts 103°
2026-05-09 14:13 19.20224 73.22961 6168 ft 268 kts 131°
2026-05-09 14:14 19.09206 73.21201 4597 ft 252 kts 262°
2026-05-09 14:15 19.09136 73.19386 4556 ft 252 kts 272°
2026-05-09 14:15 19.09142 73.17528 4503 ft 251 kts 272°
2026-05-09 14:15 19.09139 73.15778 4499 ft 226 kts 272°
2026-05-09 14:15 19.09145 73.14095 4447 ft 231 kts 272°
2026-05-09 14:16 19.09060 73.12407 4332 ft 230 kts 260°
2026-05-09 14:16 19.08819 73.10736 3985 ft 233 kts 275°
2026-05-09 14:16 19.08934 73.09054 3721 ft 223 kts 277°
2026-05-09 14:16 19.09074 73.07451 3440 ft 215 kts 279°
2026-05-09 14:17 19.09185 73.05890 3196 ft 211 kts 276°
2026-05-09 14:17 19.09183 73.04353 2916 ft 208 kts 272°
2026-05-09 14:17 19.09129 73.02848 2660 ft 206 kts 271°
2026-05-09 14:17 19.09076 73.01324 2416 ft 202 kts 272°
2026-05-09 14:18 19.09035 72.99946 2207 ft 178 kts 274°
2026-05-09 14:18 19.09025 72.98686 1980 ft 166 kts 274°
2026-05-09 14:18 19.09025 72.97492 1742 ft 160 kts 274°
2026-05-09 14:18 19.09028 72.96325 1453 ft 157 kts 273°
2026-05-09 14:19 19.09037 72.95177 1208 ft 156 kts 273°
2026-05-09 14:19 19.09038 72.94035 1013 ft 155 kts 275°
2026-05-09 14:19 19.09020 72.92900 855 ft 153 kts 272°
2026-05-09 14:19 19.08978 72.91798 791 ft 147 kts 267°
2026-05-09 14:20 19.08925 72.90725 666 ft 144 kts 270°
2026-05-09 14:20 19.08894 72.89668 579 ft 141 kts 270°
2026-05-09 14:20 19.08899 72.88696 356 ft 128 kts 268°
2026-05-09 14:21 19.08871 72.86810 45 ft 111 kts 270°
2026-05-09 14:21 19.08864 72.86211 44 ft 44 kts 269°
2026-05-09 14:21 19.08887 72.85963 42 ft 20 kts 289°
2026-05-09 14:21 19.08941 72.85854 42 ft 14 kts 298°
2026-05-09 14:22 19.08988 72.85781 46 ft 7 kts 341°
2026-05-09 14:22 19.09027 72.85804 42 ft 7 kts 60°
2026-05-09 14:22 19.09031 72.85874 46 ft 13 kts 89°
2026-05-09 14:22 19.09033 72.85993 45 ft 19 kts 89°
2026-05-09 14:23 19.09036 72.86154 45 ft 25 kts 89°
2026-05-09 14:23 19.09038 72.86352 44 ft 29 kts 89°
2026-05-09 14:23 19.09041 72.86580 44 ft 32 kts 89°
2026-05-09 14:23 19.09048 72.86757 47 ft 18 kts 69°
2026-05-09 14:24 19.09115 72.86843 42 ft 13 kts 59°
2026-05-09 14:24 19.09134 72.86956 46 ft 18 kts 88°
2026-05-09 14:24 19.09137 72.87111 46 ft 24 kts 90°
2026-05-09 14:24 19.09136 72.87303 46 ft 26 kts 87°
2026-05-09 14:25 19.09125 72.87252 42 ft 1 kts 26°
2026-05-09 14:25 19.09180 72.87262 45 ft 10 kts 358°
2026-05-09 14:25 19.09230 72.87285 46 ft 8 kts 56°
2026-05-09 14:25 19.09249 72.87346 44 ft 10 kts 53°
2026-05-09 14:26 19.09320 72.87364 45 ft 12 kts 359°
2026-05-09 14:26 19.09391 72.87401 42 ft 11 kts 49°
2026-05-09 14:26 19.09421 72.87459 46 ft 8 kts 90°
2026-05-09 14:26 19.09394 72.87507 46 ft 6 kts 143°
2026-05-09 14:27 19.09362 72.87502 46 ft 5 kts 212°
2026-05-09 14:27 19.09339 72.87483 44 ft 4 kts 220°
2026-05-09 14:27 19.09322 72.87468 44 ft 2 kts 220°
2026-05-09 14:27 19.09314 72.87460 43 ft 2 kts 220°
2026-05-09 14:28 19.09308 72.87455 44 ft 0 kts 220°